Time,TemperatureF,DewpointF,PressureIn,WindDirection,WindDirectionDegrees,WindSpeedMPH,WindSpeedGustMPH,Humidity,HourlyPrecipIn,Conditions,Clouds,dailyrainin,SoftwareType,DateUTC
2013-08-29 00:11:00,64.1,63.0,30.01,SSE,148,1.0,2.0,97,0.00,,,0.00,weatherlink.com 1.10,2013-08-29 04:11:00,
2013-08-29 00:26:00,64.5,64.0,30.02,SSE,147,0.0,1.0,97,0.00,,,0.00,weatherlink.com 1.10,2013-08-29 04:26:00,
2013-08-29 00:41:00,64.1,63.0,30.02,NNE,15,0.0,2.0,96,0.00,,,0.00,weatherlink.com 1.10,2013-08-29 04:41:00,
2013-08-29 00:56:00,64.2,63.0,30.01,SE,134,0.0,4.0,97,0.00,,,0.00,weatherlink.com 1.10,2013-08-29 04:56:00,
2013-08-29 01:11:00,64.3,64.0,30.01,NE,49,0.0,5.0,97,0.00,,,0.00,weatherlink.com 1.10,2013-08-29 05:11:00,
2013-08-29 01:26:00,64.2,63.0,30.01,NE,49,0.0,0.0,97,0.00,,,0.00,weatherlink.com 1.10,2013-08-29 05:26:00,
2013-08-29 01:41:00,64.7,64.0,30.00,NE,39,4.0,5.0,97,0.00,,,0.00,weatherlink.com 1.10,2013-08-29 05:41:00,
2013-08-29 01:57:00,64.7,64.0,30.00,NE,42,0.0,4.0,97,0.00,,,0.00,weatherlink.com 1.10,2013-08-29 05:57:00,
2013-08-29 02:12:00,64.4,64.0,30.00,NE,42,0.0,1.0,97,0.00,,,0.00,weatherlink.com 1.10,2013-08-29 06:12:00,
2013-08-29 02:27:00,64.5,64.0,30.00,NE,38,0.0,4.0,97,0.00,,,0.00,weatherlink.com 1.10,2013-08-29 06:27:00,
2013-08-29 02:42:00,64.3,64.0,30.01,ESE,115,0.0,0.0,97,0.00,,,0.00,weatherlink.com 1.10,2013-08-29 06:42:00,
2013-08-29 02:57:00,64.3,64.0,30.01,ESE,107,1.0,1.0,97,0.00,,,0.00,weatherlink.com 1.10,2013-08-29 06:57:00,
2013-08-29 03:12:00,64.5,64.0,30.02,ESE,105,0.0,4.0,97,0.00,,,0.00,weatherlink.com 1.10,2013-08-29 07:12:00,
2013-08-29 03:27:00,64.5,63.0,30.02,ESE,105,0.0,2.0,96,0.00,,,0.00,weatherlink.com 1.10,2013-08-29 07:27:00,
2013-08-29 03:42:00,64.5,63.0,30.02,ESE,121,0.0,2.0,96,0.00,,,0.00,weatherlink.com 1.10,2013-08-29 07:42:00,
2013-08-29 03:57:00,64.4,63.0,30.02,ESE,113,0.0,1.0,96,0.00,,,0.00,weatherlink.com 1.10,2013-08-29 07:57:00,
2013-08-29 04:12:00,64.3,63.0,30.03,East,101,0.0,1.0,96,0.00,,,0.00,weatherlink.com 1.10,2013-08-29 08:12:00,
2013-08-29 04:27:00,64.2,63.0,30.03,East,94,0.0,4.0,96,0.00,,,0.00,weatherlink.com 1.10,2013-08-29 08:27:00,
2013-08-29 04:42:00,64.1,63.0,30.03,WNW,298,1.0,2.0,95,0.00,,,0.00,weatherlink.com 1.10,2013-08-29 08:42:00,
2013-08-29 04:57:00,63.9,63.0,30.04,SE,128,1.0,2.0,95,0.00,,,0.00,weatherlink.com 1.10,2013-08-29 08:57:00,
2013-08-29 05:12:00,63.7,62.0,30.04,ESE,117,0.0,4.0,94,0.00,,,0.00,weatherlink.com 1.10,2013-08-29 09:12:00,
2013-08-29 05:27:00,63.7,62.0,30.05,ESE,105,1.0,4.0,94,0.00,,,0.00,weatherlink.com 1.10,2013-08-29 09:27:00,
2013-08-29 05:42:00,63.5,62.0,30.06,ESE,121,1.0,3.0,93,0.00,,,0.00,weatherlink.com 1.10,2013-08-29 09:42:00,
2013-08-29 05:57:00,63.4,61.0,30.07,South,182,1.0,4.0,92,0.00,,,0.00,weatherlink.com 1.10,2013-08-29 09:57:00,
2013-08-29 06:12:00,63.1,61.0,30.07,ESE,117,1.0,5.0,92,0.00,,,0.00,weatherlink.com 1.10,2013-08-29 10:12:00,
2013-08-29 06:27:00,63.0,60.0,30.08,ESE,119,2.0,4.0,91,0.00,,,0.00,weatherlink.com 1.10,2013-08-29 10:27:00,
2013-08-29 06:42:00,62.9,61.0,30.08,ESE,107,1.0,2.0,92,0.00,,,0.00,weatherlink.com 1.10,2013-08-29 10:42:00,
2013-08-29 06:57:00,62.9,60.0,30.08,ENE,66,3.0,7.0,91,0.00,,,0.00,weatherlink.com 1.10,2013-08-29 10:57:00,
2013-08-29 07:12:00,63.0,60.0,30.09,ESE,115,2.0,5.0,91,0.00,,,0.00,weatherlink.com 1.10,2013-08-29 11:12:00,
2013-08-29 07:27:00,63.0,60.0,30.09,ESE,123,0.0,8.0,91,0.00,,,0.00,weatherlink.com 1.10,2013-08-29 11:27:00,
2013-08-29 07:42:00,63.1,60.0,30.09,ESE,123,0.0,7.0,90,0.00,,,0.00,weatherlink.com 1.10,2013-08-29 11:42:00,
2013-08-29 07:57:00,63.3,60.0,30.09,ESE,115,1.0,8.0,90,0.00,,,0.00,weatherlink.com 1.10,2013-08-29 11:57:00,
2013-08-29 08:12:00,63.7,61.0,30.10,SSE,161,2.0,9.0,89,0.00,,,0.00,weatherlink.com 1.10,2013-08-29 12:12:00,
2013-08-29 08:27:00,64.1,61.0,30.10,East,84,1.0,13.0,89,0.00,,,0.00,weatherlink.com 1.10,2013-08-29 12:27:00,
2013-08-29 08:42:00,64.2,61.0,30.11,ESE,114,1.0,14.0,88,0.00,,,0.00,weatherlink.com 1.10,2013-08-29 12:42:00,
2013-08-29 08:57:00,64.2,61.0,30.11,East,92,1.0,10.0,88,0.00,,,0.00,weatherlink.com 1.10,2013-08-29 12:57:00,
2013-08-29 09:12:00,64.3,61.0,30.11,North,351,12.0,12.0,88,0.00,,,0.00,weatherlink.com 1.10,2013-08-29 13:12:00,
2013-08-29 09:27:00,64.2,60.0,30.11,ESE,107,2.0,11.0,87,0.00,,,0.00,weatherlink.com 1.10,2013-08-29 13:27:00,
2013-08-29 09:42:00,64.3,61.0,30.11,East,79,0.0,10.0,88,0.00,,,0.00,weatherlink.com 1.10,2013-08-29 13:42:00,
2013-08-29 09:57:00,64.2,60.0,30.12,East,95,5.0,14.0,86,0.00,,,0.00,weatherlink.com 1.10,2013-08-29 13:57:00,
2013-08-29 10:12:00,64.4,60.0,30.12,ESE,107,0.0,11.0,86,0.00,,,0.00,weatherlink.com 1.10,2013-08-29 14:12:00,
2013-08-29 10:27:00,64.5,60.0,30.12,ESE,105,2.0,8.0,85,0.00,,,0.00,weatherlink.com 1.10,2013-08-29 14:27:00,
2013-08-29 10:42:00,64.1,60.0,30.12,ENE,73,2.0,18.0,86,0.00,,,0.00,weatherlink.com 1.10,2013-08-29 14:42:00,
2013-08-29 10:57:00,63.7,60.0,30.11,SE,137,1.0,18.0,87,0.00,,,0.00,weatherlink.com 1.10,2013-08-29 14:57:00,
2013-08-29 11:12:00,64.3,60.0,30.11,ENE,68,3.0,4.0,85,0.00,,,0.00,weatherlink.com 1.10,2013-08-29 15:12:00,
2013-08-29 11:27:00,64.7,60.0,30.11,ENE,65,1.0,13.0,84,0.00,,,0.00,weatherlink.com 1.10,2013-08-29 15:27:00,
2013-08-29 11:42:00,64.4,59.0,30.11,ESE,110,2.0,16.0,83,0.00,,,0.00,weatherlink.com 1.10,2013-08-29 15:42:00,
2013-08-29 11:57:00,63.9,59.0,30.11,ESE,111,3.0,7.0,85,0.00,,,0.00,weatherlink.com 1.10,2013-08-29 15:57:00,
2013-08-29 12:12:00,64.0,60.0,30.11,NNE,13,2.0,7.0,86,0.00,,,0.00,weatherlink.com 1.10,2013-08-29 16:12:00,
2013-08-29 12:27:00,63.9,59.0,30.12,East,84,3.0,5.0,85,0.00,,,0.00,weatherlink.com 1.10,2013-08-29 16:27:00,
2013-08-29 12:42:00,64.0,60.0,30.11,ENE,76,1.0,11.0,85,0.00,,,0.00,weatherlink.com 1.10,2013-08-29 16:42:00,
2013-08-29 12:57:00,64.7,60.0,30.11,ESE,110,0.0,10.0,84,0.00,,,0.00,weatherlink.com 1.10,2013-08-29 16:57:00,
2013-08-29 13:12:00,65.5,60.0,30.10,East,89,0.0,10.0,82,0.00,,,0.00,weatherlink.com 1.10,2013-08-29 17:12:00,
2013-08-29 13:27:00,66.2,61.0,30.10,ENE,61,0.0,7.0,82,0.00,,,0.00,weatherlink.com 1.10,2013-08-29 17:27:00,
2013-08-29 13:42:00,65.5,60.0,30.09,NNE,32,1.0,11.0,82,0.00,,,0.00,weatherlink.com 1.10,2013-08-29 17:42:00,
2013-08-29 13:57:00,66.1,60.0,30.09,East,90,1.0,13.0,81,0.00,,,0.00,weatherlink.com 1.10,2013-08-29 17:57:00,
2013-08-29 14:12:00,66.2,60.0,30.09,East,80,1.0,10.0,81,0.00,,,0.00,weatherlink.com 1.10,2013-08-29 18:12:00,
2013-08-29 14:28:00,67.1,61.0,30.08,North,360,5.0,8.0,80,0.00,,,0.00,weatherlink.com 1.10,2013-08-29 18:28:00,
2013-08-29 14:43:00,67.1,60.0,30.08,East,94,1.0,9.0,79,0.00,,,0.00,weatherlink.com 1.10,2013-08-29 18:43:00,
2013-08-29 14:58:00,67.4,60.0,30.08,ESE,123,1.0,5.0,77,0.00,,,0.00,weatherlink.com 1.10,2013-08-29 18:58:00,
2013-08-29 15:13:00,67.0,60.0,30.07,ESE,109,2.0,5.0,79,0.00,,,0.00,weatherlink.com 1.10,2013-08-29 19:13:00,
2013-08-29 15:28:00,66.7,60.0,30.07,East,99,2.0,4.0,79,0.00,,,0.00,weatherlink.com 1.10,2013-08-29 19:28:00,
2013-08-29 15:43:00,66.5,59.0,30.07,NE,51,0.0,4.0,78,0.00,,,0.00,weatherlink.com 1.10,2013-08-29 19:43:00,
2013-08-29 15:58:00,66.6,60.0,30.07,ESE,111,5.0,6.0,80,0.00,,,0.00,weatherlink.com 1.10,2013-08-29 19:58:00,
2013-08-29 16:13:00,65.4,59.0,30.07,East,94,4.0,5.0,80,0.00,,,0.00,weatherlink.com 1.10,2013-08-29 20:13:00,
2013-08-29 16:28:00,64.6,58.0,30.08,NE,40,11.0,16.0,79,0.00,,,0.00,weatherlink.com 1.10,2013-08-29 20:28:00,
2013-08-29 16:43:00,64.7,58.0,30.08,NNE,31,3.0,14.0,79,0.00,,,0.00,weatherlink.com 1.10,2013-08-29 20:43:00,
2013-08-29 16:58:00,64.5,58.0,30.08,East,92,0.0,4.0,80,0.00,,,0.00,weatherlink.com 1.10,2013-08-29 20:58:00,
2013-08-29 17:14:00,64.0,58.0,30.08,East,100,0.0,2.0,80,0.00,,,0.00,weatherlink.com 1.10,2013-08-29 21:14:00,
2013-08-29 17:28:00,64.0,58.0,30.08,NE,40,13.0,14.0,80,0.00,,,0.00,weatherlink.com 1.10,2013-08-29 21:28:00,
2013-08-29 17:43:00,64.0,58.0,30.08,NE,50,10.0,14.0,80,0.00,,,0.00,weatherlink.com 1.10,2013-08-29 21:43:00,
2013-08-29 17:58:00,63.9,58.0,30.08,NE,34,10.0,13.0,80,0.00,,,0.00,weatherlink.com 1.10,2013-08-29 21:58:00,
2013-08-29 18:13:00,63.9,58.0,30.08,NE,34,10.0,12.0,81,0.00,,,0.00,weatherlink.com 1.10,2013-08-29 22:13:00,
2013-08-29 18:28:00,63.7,58.0,30.07,ESE,121,0.0,9.0,81,0.00,,,0.00,weatherlink.com 1.10,2013-08-29 22:28:00,
2013-08-29 18:43:00,63.3,58.0,30.07,SE,132,0.0,5.0,82,0.00,,,0.00,weatherlink.com 1.10,2013-08-29 22:43:00,
2013-08-29 18:58:00,63.2,58.0,30.07,NE,34,9.0,10.0,82,0.00,,,0.00,weatherlink.com 1.10,2013-08-29 22:58:00,
2013-08-29 19:13:00,63.0,58.0,30.06,East,95,1.0,12.0,83,0.00,,,0.00,weatherlink.com 1.10,2013-08-29 23:13:00,
2013-08-29 19:28:00,62.7,56.0,30.07,NNE,31,8.0,10.0,80,0.00,,,0.00,weatherlink.com 1.10,2013-08-29 23:28:00,
2013-08-29 19:43:00,62.7,56.0,30.07,NE,52,7.0,13.0,80,0.00,,,0.00,weatherlink.com 1.10,2013-08-29 23:43:00,
2013-08-29 19:58:00,62.7,57.0,30.07,NNE,29,6.0,9.0,81,0.00,,,0.00,weatherlink.com 1.10,2013-08-29 23:58:00,
2013-08-29 20:13:00,62.3,57.0,30.07,NE,40,4.0,7.0,82,0.00,,,0.00,weatherlink.com 1.10,2013-08-30 00:13:00,
2013-08-29 20:28:00,60.1,56.0,30.07,SE,124,1.0,1.0,87,0.00,,,0.00,weatherlink.com 1.10,2013-08-30 00:28:00,
2013-08-29 20:43:00,59.0,56.0,30.07,SE,133,0.0,1.0,90,0.00,,,0.00,weatherlink.com 1.10,2013-08-30 00:43:00,
2013-08-29 20:58:00,58.4,56.0,30.07,SE,135,0.0,1.0,91,0.00,,,0.00,weatherlink.com 1.10,2013-08-30 00:58:00,
2013-08-29 21:13:00,57.9,56.0,30.07,SE,135,0.0,1.0,92,0.00,,,0.00,weatherlink.com 1.10,2013-08-30 01:13:00,
2013-08-29 21:28:00,57.7,56.0,30.07,NNE,25,0.0,1.0,93,0.00,,,0.00,weatherlink.com 1.10,2013-08-30 01:28:00,
2013-08-29 21:43:00,57.5,56.0,30.07,ESE,118,0.0,1.0,93,0.00,,,0.00,weatherlink.com 1.10,2013-08-30 01:43:00,
2013-08-29 21:58:00,57.6,56.0,30.07,NNW,330,2.0,2.0,93,0.00,,,0.00,weatherlink.com 1.10,2013-08-30 01:58:00,
2013-08-29 22:13:00,58.3,56.0,30.06,NE,55,0.0,4.0,91,0.00,,,0.00,weatherlink.com 1.10,2013-08-30 02:13:00,
2013-08-29 22:28:00,57.4,55.0,30.06,NNW,332,0.0,4.0,92,0.00,,,0.00,weatherlink.com 1.10,2013-08-30 02:28:00,
2013-08-29 22:43:00,56.3,54.0,30.06,SE,144,0.0,1.0,93,0.00,,,0.00,weatherlink.com 1.10,2013-08-30 02:43:00,
2013-08-29 22:58:00,57.1,55.0,30.05,NNE,24,0.0,2.0,93,0.00,,,0.00,weatherlink.com 1.10,2013-08-30 02:58:00,
2013-08-29 23:13:00,56.1,54.0,30.05,ENE,76,0.0,1.0,94,0.00,,,0.00,weatherlink.com 1.10,2013-08-30 03:13:00,
2013-08-29 23:28:00,55.9,54.0,30.05,SE,144,0.0,2.0,94,0.00,,,0.00,weatherlink.com 1.10,2013-08-30 03:28:00,
2013-08-29 23:43:00,55.8,54.0,30.03,SE,138,0.0,1.0,95,0.00,,,0.00,weatherlink.com 1.10,2013-08-30 03:43:00,
2013-08-29 23:58:00,55.4,54.0,30.04,SE,144,0.0,1.0,95,0.00,,,0.00,weatherlink.com 1.10,2013-08-30 03:58:00,